Regional Weather Roundup
Issued by NWS Newport/Morehead, NC

Current Version | Previous Version | Text Only | Print | Product List | Glossary Off
Versions: 1 2 3 4 5 6 7 8 9 10 11 12 13 14 15 16 17 18 19 20 21 22 23 24 25 26 27 28 29 30 31 32 33 34 35 36 37 38 39 40 41 42 43 44 45 46 47 48 49 50

000
ASUS42 KMHX 020412
RWRMHX
WEATHER ROUNDUP FOR EASTERN NORTH CAROLINA
NATIONAL WEATHER SERVICE NEWPORT/MOREHEAD CITY NC
1200 AM EDT THU APR 02 2015

NOTE: "FAIR" INDICATES FEW OR NO CLOUDS BELOW 12,000 FEET
WITH NO SIGNIFICANT WEATHER AND/OR OBSTRUCTIONS TO VISIBILITY

NCZ015>017-031-032-045>047-102-103-020500-
NORTH COAST

CITY           SKY/WX    TMP DP  RH WIND       PRES   REMARKS
EDENTON        CLEAR     44  35  72 S5        30.31S
ELIZABETH CITY CLEAR     42  34  73 SE3       30.31S
KITTY HAWK     CLEAR     41  32  68 SE3       30.30S
MANTEO         CLEAR     42  32  68 CALM      30.32R

$$

NCZ045>047-081-094-103-104-020500-
CENTRAL COAST

CITY           SKY/WX    TMP DP  RH WIND       PRES   REMARKS
FRISCO         CLEAR     41  28  60 E5        30.32R
SWANQUARTER      N/A     39 N/A N/A E2        30.27S

$$

NCZ095-097-098-100-101-020500-
SOUTHERN COAST

CITY           SKY/WX    TMP DP  RH WIND       PRES   REMARKS
BEAUFORT       CLEAR     48  39  71 NE3       30.31S
CEDAR ISLAND     N/A     50 N/A N/A E14       30.36R
JACKSONVILLE   CLEAR     48  37  65 E9        30.30R
PINEY ISLAND   CLEAR    N/A N/A N/A E8        30.31R
WILMINGTON     CLEAR     53  42  66 E9        30.29S


$$

NCZ011>013-027>030-043-044-078>080-089-090>093-098-020500-
COASTAL PLAIN

CITY           SKY/WX    TMP DP  RH WIND       PRES   REMARKS
AHOSKIE        CLEAR     40  34  80 SE5       30.31R
CLINTON        CLEAR     48  43  81 CALM      30.29R
ELIZABETHTOWN  CLEAR     50  43  75 SE5       30.28R
GOLDSBORO      CLEAR     48  45  89 E6        30.27R
GREENVILLE     CLEAR     46  39  76 SE6       30.31R
HAVELOCK       CLEAR     46  33  60 E14       30.32R
KENANSVILLE    CLEAR     46  38  75 CALM      30.30R
KINSTON        CLEAR     47  39  71 SE5       30.31R
NEW BERN       CLEAR     48  39  71 E6        30.31R
RICHLANDS      CLEAR     46  34  61 E6        30.30S
ROCKY MOUNT    CLEAR     48  36  63 S5        30.29R
WASHINGTON     CLEAR     44  36  72 SE6       30.32R
WHITEVILLE     CLEAR     52  44  73 SE7       30.27R

$$

AMZ130-135-150-152-154-156-158-170-250-252-270-ANZ085-086-088-633-658-670-020500-
MARINE OBSERVATIONS

STATION/POSITION TIME  TEMP    WIND        PRES    WAVE   SWELL
                       AIR SEA DIR/SP/G            HT/PER HT/PER
                 (UTC) (F)     (DEG/KT/KT) (MB)    (FT/S) (FT/S)
CHESAPEAKE LIGHT 0300   42     160/ 11/ 11 1026.1
64 E VA BEACH    0350   48 53  130/  4/  6 1025.4    3/ 8   3/ 8
DUCK             0300   42 43  130/  7/  8 1025.3
2 E DUCK         0311      43                N/A     3/ 6
10 NE DUCK       NOT AVBL
OREGON INLET     0300   42 47   70/  4/  5 1026.3
HATTERAS CG      0300   45 57  100/  3/  5 1026.7
CAPE LOOKOUT     0400   55      60/ 18/ 21 1026.0
BEAUFORT LAB     0300   51 55   70/  6/  8 1025.2
27 SE WRIGHTSVLE 0300   56 64   80/ 17/ 21 1026.6
5 SE WRIGHTSVLE  0300   56 56  100/ 16/ 19 1025.3
225 S CAPE HAT   0350   64 69   40/ 17/ 21 1023.3    7/ 8   3/11
41 SE CHARLESTON 0350   65 68   80/ 19/ 23 1022.9    6/ 7   2/13

$$


USA.gov is the U.S. government's official web portal to all federal, state and local government web resources and services.